sat.trackr.live / text

‹ back to catalog

STARLINK-32029

NORAD 60145 · 2024-120L

PAYLOAD ACTIVE UNKNOWN

§ Identity

Operator
Country
US
Launch date
2024-06-27
Launch site
AFETR
Launch vehicle
Mass (kg)
RCS (m²)

Purposes: comms

External: N2YO · Heavens-Above · Gunter

§ Orbital elements

Epoch: 2026-05-24T21:29:42.781056Z

Period
93.90 min
Inclination
53.1609°
Eccentricity
0.0000680
Mean motion
15.33546726 rev/d
Perigee alt
464.8 km
Apogee alt
465.7 km
Semi-major
6,843.4 km
B*
2.5026e-5
RAAN
325.9552°
Arg perigee
86.4587°
Mean anomaly
273.6493°
Rev number
10,804

§ Raw data

STARLINK-320291 60145U 24120L   26144.89563404  .00000451  00000+0  25026-4 0  99992 60145  53.1609 325.9552 0000680  86.4587 273.6493 15.33546726108044

JSON: /api/v1/satellites/60145 · /tle

For live sub-satellite position, see the globe view (requires WebGL).

§ Visibility from observer

Set your observer location to see the next 7 days of passes ≥ 10°. The values pass through the URL so the page stays shareable.

No JS? Fill the form by hand. The geolocation button needs JavaScript.